Hourly Weather Siemichow

Today, 7 August, Friday

Time Temperature Precipitation Wind Pressure Humidity
00:00 +22°C° 0 mm 1 mps 755 mmHg 87%
01:00 +21°C° 0 mm 1 mps 756 mmHg 89%
02:00 +21°C° 0 mm 1 mps 755 mmHg 90%
03:00 +20°C° 0 mm 1 mps 755 mmHg 91%
04:00 +20°C° 0 mm 1 mps 755 mmHg 92%
05:00 +21°C° 0 mm 1 mps 755 mmHg 88%
06:00 +22°C° 0 mm 1 mps 755 mmHg 84%
07:00 +23°C° 0 mm 1 mps 756 mmHg 80%
08:00 +25°C° 0 mm 1 mps 756 mmHg 74%
09:00 +27°C° 0 mm 2 mps 756 mmHg 68%
10:00 +28°C° 0 mm 2 mps 756 mmHg 62%
11:00 +29°C° 0 mm 2 mps 755 mmHg 56%
12:00 +31°C° 0 mm 3 mps 755 mmHg 51%
13:00 +33°C° 0 mm 3 mps 755 mmHg 46%
14:00 +33°C° 0 mm 3 mps 755 mmHg 46%
15:00 +32°C° 0 mm 2 mps 755 mmHg 46%
16:00 +32°C° 0 mm 2 mps 754 mmHg 46%
17:00 +30°C° 0 mm 2 mps 754 mmHg 52%
18:00 +29°C° 0 mm 2 mps 754 mmHg 59%
19:00 +27°C° 0 mm 2 mps 754 mmHg 65%
20:00 +26°C° 0 mm 2 mps 755 mmHg 68%
21:00 +25°C° 0 mm 2 mps 755 mmHg 71%
22:00 +24°C° 0 mm 2 mps 755 mmHg 74%
23:00 +24°C° 0 mm 1 mps 755 mmHg 76%

Tomorrow, 8 August, Saturday

Time Temperature Precipitation Wind Pressure Humidity
00:00 +23°C° 0 mm 1 mps 755 mmHg 78%
01:00 +23°C° 0 mm 1 mps 755 mmHg 80%
02:00 +22°C° 0 mm 1 mps 755 mmHg 82%
03:00 +22°C° 0 mm 1 mps 755 mmHg 84%
04:00 +22°C° 0 mm 1 mps 755 mmHg 85%
05:00 +23°C° 0 mm 1 mps 755 mmHg 81%
06:00 +24°C° 0 mm 1 mps 755 mmHg 77%
07:00 +25°C° 0 mm 1 mps 755 mmHg 74%
08:00 +26°C° 0 mm 1 mps 755 mmHg 68%
09:00 +28°C° 0 mm 2 mps 755 mmHg 62%
10:00 +29°C° 0 mm 2 mps 755 mmHg 56%
11:00 +30°C° 0 mm 2 mps 755 mmHg 53%
12:00 +31°C° 0 mm 2 mps 754 mmHg 49%
13:00 +32°C° 0 mm 2 mps 754 mmHg 45%
14:00 +32°C° 0 mm 2 mps 754 mmHg 46%
15:00 +32°C° 0 mm 2 mps 753 mmHg 46%
16:00 +31°C° 0 mm 2 mps 753 mmHg 46%
17:00 +30°C° 0 mm 2 mps 753 mmHg 51%
18:00 +29°C° 0 mm 1 mps 753 mmHg 57%
19:00 +27°C° 0 mm 1 mps 753 mmHg 62%
20:00 +27°C° 0 mm 1 mps 753 mmHg 64%
21:00 +26°C° 0 mm 1 mps 753 mmHg 66%
22:00 +25°C° 0 mm 1 mps 753 mmHg 67%
23:00 +24°C° 0 mm 1 mps 753 mmHg 71%

Day after tomorrow, 9 August, Sunday

Time Temperature Precipitation Wind Pressure Humidity
00:00 +24°C° 0 mm 1 mps 753 mmHg 74%
01:00 +23°C° 0 mm 1 mps 753 mmHg 77%
02:00 +23°C° 0 mm 1 mps 753 mmHg 79%
03:00 +22°C° 0 mm 1 mps 753 mmHg 81%
04:00 +20°C° 0 mm 0 mps 753 mmHg 82%
05:00 +21°C° 0 mm 0 mps 753 mmHg 79%
06:00 +24°C° 0 mm 1 mps 753 mmHg 75%
07:00 +25°C° 0 mm 1 mps 753 mmHg 72%
08:00 +27°C° 0.1 mm 1 mps 753 mmHg 67%
09:00 +28°C° 0.1 mm 1 mps 753 mmHg 62%
10:00 +29°C° 0.1 mm 2 mps 753 mmHg 57%
11:00 +30°C° 0 mm 2 mps 753 mmHg 54%
12:00 +31°C° 0 mm 2 mps 753 mmHg 51%
13:00 +31°C° 0 mm 2 mps 752 mmHg 49%
14:00 +31°C° 0 mm 2 mps 752 mmHg 49%
15:00 +31°C° 0 mm 2 mps 752 mmHg 49%
16:00 +31°C° 0 mm 2 mps 752 mmHg 49%
17:00 +30°C° 0 mm 2 mps 752 mmHg 53%
18:00 +29°C° 0 mm 2 mps 752 mmHg 58%
19:00 +28°C° 0 mm 2 mps 752 mmHg 62%
20:00 +27°C° 0 mm 2 mps 752 mmHg 64%
21:00 +26°C° 0 mm 2 mps 752 mmHg 65%
22:00 +26°C° 0 mm 2 mps 752 mmHg 66%
23:00 +25°C° 0 mm 2 mps 752 mmHg 69%

10 August, Monday

Time Temperature Precipitation Wind Pressure Humidity
00:00 +24°C° 0 mm 1 mps 752 mmHg 71%
01:00 +23°C° 0 mm 1 mps 751 mmHg 73%
02:00 +23°C° 0 mm 1 mps 751 mmHg 75%
03:00 +23°C° 0 mm 1 mps 751 mmHg 76%
04:00 +20°C° 0 mm 0 mps 751 mmHg 77%
05:00 +21°C° 0 mm 0 mps 752 mmHg 75%
06:00 +24°C° 0 mm 1 mps 752 mmHg 72%
07:00 +25°C° 0 mm 1 mps 752 mmHg 70%
08:00 +26°C° 0 mm 1 mps 752 mmHg 66%
09:00 +28°C° 0 mm 1 mps 752 mmHg 61%
10:00 +29°C° 0 mm 2 mps 752 mmHg 57%
11:00 +30°C° 0 mm 2 mps 752 mmHg 53%
12:00 +30°C° 0 mm 2 mps 751 mmHg 50%
13:00 +31°C° 0 mm 2 mps 751 mmHg 46%
14:00 +31°C° 0 mm 2 mps 751 mmHg 46%
15:00 +32°C° 0 mm 2 mps 751 mmHg 45%
16:00 +32°C° 0 mm 2 mps 751 mmHg 45%
17:00 +30°C° 0 mm 2 mps 751 mmHg 51%
18:00 +29°C° 0 mm 2 mps 751 mmHg 56%
19:00 +28°C° 0 mm 2 mps 751 mmHg 62%
20:00 +26°C° 0.4 mm 2 mps 751 mmHg 67%
21:00 +25°C° 0.4 mm 2 mps 751 mmHg 72%
22:00 +24°C° 0.4 mm 2 mps 752 mmHg 77%
23:00 +23°C° 0.8 mm 2 mps 752 mmHg 80%

11 August, Tuesday

Time Temperature Precipitation Wind Pressure Humidity
00:00 +23°C° 0.8 mm 1 mps 752 mmHg 83%
01:00 +22°C° 0.8 mm 1 mps 752 mmHg 86%
02:00 +22°C° 0.4 mm 1 mps 752 mmHg 88%
03:00 +20°C° 0.4 mm 2 mps 752 mmHg 91%
04:00 +20°C° 0.4 mm 2 mps 752 mmHg 93%
05:00 +21°C° 0.1 mm 2 mps 752 mmHg 91%
06:00 +21°C° 0.1 mm 2 mps 752 mmHg 89%
07:00 +23°C° 0.1 mm 2 mps 752 mmHg 86%
08:00 +24°C° 0.3 mm 2 mps 752 mmHg 80%
09:00 +26°C° 0.3 mm 3 mps 752 mmHg 74%
10:00 +27°C° 0.3 mm 3 mps 752 mmHg 68%
11:00 +28°C° 0.2 mm 3 mps 752 mmHg 65%
12:00 +28°C° 0.2 mm 4 mps 752 mmHg 61%
13:00 +29°C° 0.2 mm 4 mps 752 mmHg 57%
14:00 +29°C° 0.1 mm 4 mps 752 mmHg 55%
15:00 +29°C° 0.1 mm 5 mps 752 mmHg 52%
16:00 +29°C° 0.1 mm 5 mps 752 mmHg 50%
17:00 +27°C° 0 mm 4 mps 752 mmHg 55%
18:00 +25°C° 0 mm 4 mps 752 mmHg 60%
19:00 +24°C° 0 mm 3 mps 752 mmHg 65%
20:00 +22°C° 0 mm 3 mps 752 mmHg 68%
21:00 +21°C° 0 mm 3 mps 752 mmHg 71%
22:00 +20°C° 0 mm 3 mps 753 mmHg 73%
23:00 +19°C° 0 mm 3 mps 753 mmHg 75%

12 August, Wednesday

Time Temperature Precipitation Wind Pressure Humidity
00:00 +18°C° 0 mm 3 mps 753 mmHg 76%
01:00 +18°C° 0 mm 2 mps 753 mmHg 78%
02:00 +17°C° 0 mm 2 mps 753 mmHg 81%
03:00 +17°C° 0 mm 2 mps 753 mmHg 83%
04:00 +16°C° 0 mm 1 mps 753 mmHg 86%
05:00 +18°C° 0 mm 1 mps 753 mmHg 83%
06:00 +18°C° 0 mm 2 mps 753 mmHg 80%
07:00 +19°C° 0 mm 2 mps 753 mmHg 77%
08:00 +20°C° 0 mm 2 mps 753 mmHg 70%
09:00 +22°C° 0 mm 3 mps 753 mmHg 63%
10:00 +24°C° 0 mm 3 mps 753 mmHg 57%
11:00 +25°C° 0 mm 3 mps 753 mmHg 52%
12:00 +26°C° 0 mm 3 mps 752 mmHg 48%
13:00 +27°C° 0 mm 3 mps 752 mmHg 44%
14:00 +27°C° 0 mm 3 mps 752 mmHg 44%
15:00 +27°C° 0 mm 3 mps 752 mmHg 45%
16:00 +27°C° 0 mm 3 mps 752 mmHg 45%
17:00 +26°C° 0 mm 3 mps 752 mmHg 52%
18:00 +24°C° 0 mm 3 mps 752 mmHg 58%
19:00 +22°C° 0 mm 3 mps 752 mmHg 65%
20:00 +21°C° 0 mm 3 mps 752 mmHg 66%
21:00 +20°C° 0 mm 3 mps 752 mmHg 66%
22:00 +19°C° 0 mm 3 mps 752 mmHg 67%
23:00 +18°C° 0 mm 3 mps 752 mmHg 69%
Show more